Location: Goodmans Corner
(38.2049°N, 120.9872°W)
Time: 22:30:18
(UTC+00:00)

Envisat - Pass Details

Date: 21 October 2019
Orbit: 764 x 766 km, 98.1° (Epoch: 20 November)

Event Time Altitude Azimuth Distance (km) Brightness Sun altitude
Rises 03:28:44 0° 211° (SSW) 3,219 6.5 -26.1°
Reaches altitude 10° 03:32:02 10° 234° (SW) 2,299 6.0 -26.7°
Maximum altitude 03:34:54 15° 269° (W) 1,971 6.0 -27.3°
Drops below altitude 10° 03:37:46 10° 303° (WNW) 2,307 6.3 -27.9°
Sets 03:41:07 0° 327° (NNW) 3,239 6.8 -28.5°
